Find Starlink 4078

NORAD ID: 52689 Int'l Des: 2022-053 Owner: SPXS Country: US Constellation: starlink operational
LEOCIRCULAR

リアルタイム位置

3D地球を読み込み中...

Starlink 4078について

説明を読み込み中...

次回通過

Passes for default location (London). Set your location on the main map for personalized predictions.

高度履歴

Loading altitude history...

軌道要素

1 52689U 22053AK 26125.40144720 .00120844 00000-0 12540-2 0 9993
2 52689 53.2065 169.1343 0006093 12.0181 348.0979 15.63777221220859
Epoch: May 5, 2026 • Age: 20 hours

現在のステータス

高度 372.4 km
速度 7.69 km/s
衛星直下点 6.44°N, 138.33°W
打ち上げ日 May 18, 2022
運用期間 3.9 years
タイプ internet

技術仕様

分類 Payload
質量 297.00 kg
乾燥質量 275.00 kg
総質量 297.00 kg
長さ 0.20 m
直径 2.80 m
スパン 9.00 m
形状 Box + pan
製造者 SPXS
バスタイプ Starlink
フェーズステータス In Orbit
所有者/国 SPXS/US

Most Searched